Location: Caltech
(34.1382°N, 118.1253°W)
Time: 19:24:52
(UTC-07:00)

Saudisat 1A - Visible Passes

Search period start: 29 May 2015 00:00
Search period end: 08 June 2015 00:00
Orbit: 579 x 620 km, 64.6° (Epoch: 29 May)

Date Brightness Start Highest point End Pass type
(mag) Time Alt. Az. Time Alt. Az. Time Alt. Az.
29 May 11.4 04:30:26 10° NNE 04:33:05 16° NE 04:35:53 10° E visible
30 May 10.5 04:40:33 10° N 04:44:22 27° NE 04:48:14 10° ESE visible
30 May 9.6 20:21:41 10° SW 20:25:49 42° WNW 20:30:00 10° NNE visible
31 May 9.2 04:51:08 10° NNW 04:55:30 50° ENE 04:59:52 10° SE visible
31 May 10.9 20:33:28 10° WSW 20:36:59 23° NW 20:40:27 10° N visible
01 Jun 11.6 03:25:19 10° NNE 03:26:20 11° NE 03:27:35 10° ENE visible
01 Jun 8.0 05:01:59 10° NNW 05:06:31 83° WSW 05:10:59 10° SSE visible
01 Jun 11.5 20:46:07 10° WNW 20:48:18 13° NW 20:50:18 10° NNW visible
02 Jun 10.9 03:34:33 10° N 03:37:42 19° NE 03:40:57 10° E visible
03 Jun 9.9 03:44:51 10° N 03:48:55 33° NE 03:53:00 10° ESE visible
04 Jun 8.5 03:55:32 10° NNW 04:00:00 63° ENE 04:04:27 10° SE visible
05 Jun 11.1 02:28:53 10° NNE 02:30:57 13° NE 02:33:13 10° ENE visible
05 Jun 8.0 04:06:30 10° NW 04:10:58 65° WSW 04:15:23 10° SSE visible
06 Jun 10.4 02:38:43 10° N 02:42:16 23° NE 02:45:53 10° ESE visible
06 Jun 8.7 04:17:49 10° NW 04:21:51 32° WSW 04:25:09 14° S visible
07 Jun 9.2 02:49:11 10° NNW 02:53:26 41° ENE 02:55:53 22° ESE visible
07 Jun 9.6 04:29:44 10° WNW 04:32:26 17° WSW 04:32:26 17° WSW visible
